Regional Weather Roundup
Issued by NWS San Diego, CA

Home | Current Version | Previous Version | Text Only | Print | Product List | Glossary On
Versions: 1 2 3 4 5 6 7 8 9 10 11 12 13 14 15 16 17 18 19 20 21 22 23 24 25 26 27 28 29 30 31 32 33 34 35 36 37 38 39 40 41 42 43 44 45 46 47 48 49 50
000
ASUS46 KSGX 010410
RWRSGX

SAN DIEGO HOURLY WEATHER ROUNDUP
NATIONAL WEATHER SERVICE SAN DIEGO CA
900 PM PDT THU JUL 31 2014

NOTE: "FAIR" INDICATES FEW OR NO CLOUDS BELOW 12,000 FEET WITH NO
SIGNIFICANT WEATHER AND/OR OBSTRUCTIONS TO VISIBILITY.

CAZ042-043-060-061-PZZ750-775-010500-

GREATER SAN DIEGO AREA

CITY           SKY/WX    TMP DP  RH WIND       PRES   REMARKS
LINDBERGH FLD  MOCLDY    72  64  76 NW5       29.93R
POINT LOMA       N/A     69  65  87 W7          N/A
NATIONAL CITY    N/A     72  67  83 SW7       29.93R
CHULA VISTA      N/A     71  67  87 SW3       29.86R
IMPERIAL BEACH MOCLDY    71  66  84 SW5       29.94R
BROWN FIELD    PTCLDY    68  64  87 SW7       29.93R
MIRAMAR MCAS   PTCLDY    69  64  84 W3        29.92R
MONTGOMERY FLD PTCLDY    71  65  81 W5        29.93R HAZE

$$

NORTH SAN DIEGO COUNTY

CITY           SKY/WX    TMP DP  RH WIND       PRES   REMARKS
CAMP PENDLETON PTCLDY    70  64  81 SW3       29.90R
OCEANSIDE AP   PTCLDY    71  65  81 W5        29.89R
VISTA            N/A     72  66  81 CALM      29.88R
CARLSBAD       CLEAR     70  65  84 S5        29.90R
DEL MAR          N/A     69  66  88 SW2       29.93R
LA JOLLA SCRIP   N/A     69  67  93 SW3       29.89R
FALLBROOK        N/A     72  69  91 CALM      29.88R
ESCONDIDO        N/A     76  65  69 SW3       29.91R
SAN MARCOS       N/A     73  65  78 NW1       29.88R
POWAY            N/A     72  65  78 CALM      29.91R
R. PENASQUITOS   N/A     70  66  85 CALM      29.91R

$$

EAST SAN DIEGO COUNTY

CITY           SKY/WX    TMP DP  RH WIND       PRES   REMARKS
RAMONA         CLEAR     73  61  65 W7        29.94R
SANTEE LAKES     N/A     72  65  79 W3        29.91R
GILLESPIE FLD  FAIR      73  63  68 SW5       29.94R
LA MESA          N/A     73  67  81 CALM      29.85R
JAMUL            N/A     71  65  81 CALM      29.89R
DESCANSO N       N/A     76  55  47 CALM      29.74R
MT. LAGUNA OBS   N/A     73  43  34 NW1       29.79R
CAMPO            N/A     77  59  53 S9        29.97R

$$

ORANGE COUNTY AND THE LOS ANGELES BASIN

CITY           SKY/WX    TMP DP  RH WIND       PRES   REMARKS
JOHN WAYNE AP  PTCLDY    74  63  68 SW5       29.89R
LAGUNA BEACH     N/A     70  66  86 CALM      29.86R
LAKE FOREST FR   N/A     73  60  61 CALM      29.77R
SANTA ANA        N/A     74  66  74 CALM      29.84R
LOS ALAMITOS   CLEAR     72  60  66 W8        29.88R
FULLERTON      CLEAR     75  59  57 W5        29.87R
LONG BEACH     CLEAR     71  61  70 NW9       29.88R
L.A. AP        PTCLDY    68  62  81 SW10      29.89R
L.A. DOWNTOWN  CLEAR     70  61  73 VRB3      29.88R

$$

THE INLAND EMPIRE

CITY           SKY/WX    TMP DP  RH WIND       PRES   REMARKS
CORONA         CLEAR     79  62  55 W8        29.88R
CHINO          CLEAR     78  62  57 W12       29.89R
ONTARIO        PTCLDY    82  60  47 SW10      29.89R
RIVERSIDE AP   CLEAR     82  60  47 W5        29.89R
RIV CYN CREST    N/A     85  68  57 W2        29.87R
MORENO VALLEY    N/A     84  63  48 NW2         N/A
MARCH ARB      CLEAR     83  61  46 NW7       29.93R
HORSETHIEF CYN   N/A     84  53  33 W1        29.88R
PERRIS           N/A     85  60  41 NW3       29.88R
MENIFEE          N/A     82  65  56 SE5       29.95R
HEMET EAST       N/A     86  53  31 CALM      29.85R
FRENCH VALLEY  FAIR      77  63  61 SW3       29.93R
TEMECULA         N/A     79  65  62 NE2       29.87R

$$

SAN BERNARDINO AND RIVERSIDE COUNTY MOUNTAINS

CITY           SKY/WX    TMP DP  RH WIND       PRES   REMARKS
BIG BEAR AP    CLEAR     68  41  37 W3        30.31S
BIG BEAR SHEA    N/A     71  34  26 CALM      29.81F
ANGELUS OAKS     N/A     70  45  40 MISG      29.74R
PINE COVE        N/A     71  43  36 CALM      29.84R

$$

SOUTHERN DESERT INCLUDING THE COACHELLA VALLEY

CITY           SKY/WX    TMP DP  RH WIND       PRES   REMARKS
PALM SPRINGS   CLEAR    104  54  19 E6        29.78R HX 102
THOUSAND PALMS   N/A    101  55  21 NE5       29.71R HX  99
THERMAL        PTCLDY    94  61  33 S7        29.70R
BLYTHE           N/A    N/A N/A N/A MISG      29.75R
IMPERIAL AP    MOCLDY    98  70  40 SE13      29.72R HX 105
EL CENTRO NAS  MOCLDY    96  70  42 SE10      29.72R HX 102
YUMA AZ        MOCLDY    97  61  30 S10       29.77R HX  97
MEXICALI       MOCLDY    91  73  55 E9        29.74  HX 100

$$

UPPER DESERT

CITY           SKY/WX    TMP DP  RH WIND       PRES   REMARKS
VICTORVILLE AP CLEAR     90  48  24 SW9       29.98R
HESPERIA         N/A     87  47  25 W6        29.89R
APPLE VALLEY     N/A     87  44  22 CALM      30.04R
GRAY BUTTE AP  NOT AVBL
PALMDALE       CLEAR     89  44  20 W14       29.97R
LANCASTER      CLEAR     87  46  24 SW9       29.95R
EDWARDS AFB    CLEAR     91  45  20 SW15      29.92R
DAGGETT        CLEAR     99  40  13 SW17      29.86R
29 PALMS N     PTCLDY    97  46  17 SW18      29.93R
NEEDLES        MOCLDY   106  53  17 SW16G22   29.76R HX 104

$$

REGIONAL REPORTS

CITY           SKY/WX    TMP DP  RH WIND       PRES   REMARKS
SANTA BARBARA  CLEAR     67  61  81 SE7       29.85R
SANDBERG       CLEAR     81  45  28 N9        30.14R
MT. WILSON       N/A     73  39  29 W7          N/A
LAS VEGAS NV   MOCLDY   101  40  12 SW14      29.81R HX  96
PHOENIX AZ     MOCLDY   100  52  19 NE10      29.82R HX  97
TIJUANA        PTCLDY    70  63  78 W8        29.96
ENSENADA NW      N/A     68  32  26 NW3       29.90S

$$

OFFSHORE ISLANDS

CITY           SKY/WX    TMP DP  RH WIND       PRES   REMARKS
CATALINA ARPT  CLEAR     72  55  55 W8        29.94R
SAN NICOLAS IS CLEAR    N/A N/A N/A W22G30    29.88S

$$

MARINE AND OFFSHORE BUOY REPORTS

STATION/POSITION SKY/WX   TEMP    WIND        PRES    SWELL
                          AIR SEA DIR/SP/G            HT/PER/DIR
                          (F)     (DEG/KT/KT) (MB)    (FT/S/D)
TANNER BANKS               65 67  300/ 17/ 21 1013.1R   3/310/ 8
S CLEMENTE BASIN           67 71  290/ 12/ 14 1012.8R   3/290/ 7
SAN NICOLAS IS.               66                N/A     2/170/13
SO. S. ROSA ISLA           64 66  300/ 19/ 23 1012.1R   2/10
W. S. BARBARA CH           61 61  310/ 17/ 23 1011.9R   2/310/13
M. S. BARBARA CH           63 66  270/ 16/ 19 1010.9
S. MONICA BASIN            67 68  270/ 14/ 17 1011.3R   2/190/12
S PEDRO CHANNEL               69                N/A     2/170/13
DANA POINT                    71                N/A     2/190/13
CMP PENDLETON NS              72                N/A     2/220/17
OCEANSIDE OFFSHR              73                N/A     2/210/17
TORREY PINES OTR              73                N/A     2/210/17
LA JOLLA 1                 70 74  270/  3/  5 1012.9R
MISSION BAY BUOY              72                N/A     2/230/17
SAN DIEGO BAY                 76              1013.5R
POINT LOMA SOUTH              73                N/A     2/190/13

$$



USA.gov is the U.S. government's official web portal to all federal, state and local government web resources and services.